| time (UTC) | temp F | wind direction | speed MPH | gust MPH | rain 1hr in | rain 24hr in | rain mn in | humidity % | barometer mb |
| 20260831050501 | 77 | 39 | 0.0 | 0.0 | 0.00 | 0.16 | 0.01 | ||
| 20260831050002 | 77 | 39 | 0.0 | 0.0 | 0.00 | 0.16 | 0.01 | ||
| 20260831045001 | 77 | 39 | 0.0 | 0.0 | 0.00 | 0.16 | 0.01 | ||
| 20260831044459 | 77 | 39 | 0.0 | 0.0 | 0.00 | 0.16 | 0.01 | ||
| 20260831044000 | 77 | 39 | 0.0 | 0.0 | 0.00 | 0.16 | 0.01 | ||
| 20260831043459 | 78 | 39 | 0.0 | 0.0 | 0.00 | 0.16 | 0.01 | ||
| 20260831043000 | 77 | 39 | 0.0 | 0.0 | 0.00 | 0.16 | 0.01 | ||
| 20260831042458 | 77 | 39 | 0.0 | 0.0 | 0.00 | 0.16 | 0.01 | ||
| 20260831041959 | 77 | 39 | 0.0 | 0.0 | 0.00 | 0.16 | 0.01 | ||
| 20260831041457 | 77 | 39 | 0.0 | 0.0 | 0.00 | 0.16 | 0.01 | ||
| 20260831040958 | 77 | 39 | 0.0 | 0.0 | 0.00 | 0.16 | 0.01 | ||
| 20260831040456 | 78 | 39 | 0.0 | 0.0 | 0.00 | 0.16 | 0.01 | ||
| 20260831035957 | 76 | 39 | 0.0 | 0.0 | 0.00 | 0.16 | 0.01 | ||
| 20260831035456 | 78 | 39 | 0.0 | 0.0 | 0.00 | 0.16 | 0.01 | ||
| 20260831034957 | 77 | 39 | 0.0 | 0.0 | 0.00 | 0.16 | 0.01 | ||
| 20260831034455 | 77 | 39 | 0.0 | 0.0 | 0.00 | 0.16 | 0.01 | ||
| 20260831033956 | 78 | 39 | 0.0 | 0.0 | 0.00 | 0.16 | 0.01 | ||
| 20260831033454 | 78 | 53 | 1.0 | 1.0 | 0.00 | 0.16 | 0.01 | ||
| 20260831032956 | 78 | 34 | 0.0 | 0.0 | 0.00 | 0.16 | 0.01 | ||
| 20260831032452 | 78 | 34 | 0.0 | 0.0 | 0.00 | 0.16 | 0.01 | ||
| 20260831031953 | 78 | 34 | 0.0 | 0.0 | 0.00 | 0.16 | 0.01 | ||
| 20260831031451 | 78 | 34 | 0.0 | 0.0 | 0.00 | 0.16 | 0.01 | ||
| 20260831030952 | 78 | 34 | 0.0 | 0.0 | 0.00 | 0.16 | 0.01 | ||
| 20260831030450 | 78 | 34 | 0.0 | 0.0 | 0.00 | 0.16 | 0.01 | ||
| 20260831025951 | 77 | 34 | 0.0 | 0.0 | 0.00 | 0.16 | 0.01 | ||
| 20260831025449 | 78 | 34 | 0.0 | 0.0 | 0.00 | 0.16 | 0.01 | ||
| 20260831024950 | 79 | 34 | 0.0 | 0.0 | 0.00 | 0.16 | 0.01 | ||
| 20260831024448 | 78 | 34 | 0.0 | 0.0 | 0.00 | 0.16 | 0.01 | ||
| 20260831023950 | 78 | 34 | 0.0 | 0.0 | 0.00 | 0.16 | 0.01 | ||
| 20260831022949 | 78 | 34 | 0.0 | 0.0 | 0.00 | 0.16 | 0.01 | ||
| 20260831022447 | 78 | 34 | 0.0 | 0.0 | 0.00 | 0.16 | 0.01 | ||
| 20260831021948 | 78 | 34 | 0.0 | 0.0 | 0.00 | 0.16 | 0.01 | ||
| 20260831020947 | 78 | 75 | 0.0 | 0.0 | 0.00 | 0.16 | 0.01 | ||
| 20260831020445 | 78 | 75 | 0.0 | 0.0 | 0.00 | 0.16 | 0.01 | ||
| 20260831015946 | 79 | 75 | 0.0 | 0.0 | 0.00 | 0.16 | 0.01 | ||
| 20260831015445 | 78 | 75 | 0.0 | 0.0 | 0.00 | 0.16 | 0.01 | ||
| 20260831014946 | 79 | 75 | 0.0 | 0.0 | 0.00 | 0.16 | 0.01 | ||
| 20260831014444 | 78 | 75 | 0.0 | 0.0 | 0.00 | 0.16 | 0.01 | ||
| 20260831013945 | 79 | 75 | 0.0 | 0.0 | 0.00 | 0.16 | 0.01 | ||
| 20260831013443 | 79 | 75 | 0.0 | 0.0 | 0.00 | 0.16 | 0.01 | ||
| 20260831012945 | 78 | 75 | 0.0 | 0.0 | 0.00 | 0.16 | 0.01 | ||
| 20260831012440 | 78 | 75 | 0.0 | 0.0 | 0.00 | 0.16 | 0.01 | ||
| 20260831011941 | 78 | 75 | 0.0 | 0.0 | 0.00 | 0.16 | 0.01 | ||
| 20260831011440 | 79 | 75 | 0.0 | 0.0 | 0.00 | 0.16 | 0.01 | ||
| 20260831010941 | 79 | 75 | 0.0 | 0.0 | 0.00 | 0.16 | 0.01 | ||
| 20260831010437 | 79 | 75 | 0.0 | 0.0 | 0.00 | 0.16 | 0.01 | ||
| 20260831005935 | 79 | 75 | 0.0 | 0.0 | 0.00 | 0.16 | 0.01 | ||
| 20260831005432 | 79 | 75 | 0.0 | 0.0 | 0.00 | 0.16 | 0.01 | ||
| 20260831004933 | 79 | 75 | 0.0 | 0.0 | 0.00 | 0.16 | 0.01 | ||
| 20260831004432 | 80 | 75 | 0.0 | 0.0 | 0.00 | 0.16 | 0.01 | ||
| 20260831003934 | 79 | 75 | 0.0 | 0.0 | 0.00 | 0.16 | 0.01 | ||
| 20260831002932 | 80 | 75 | 0.0 | 0.0 | 0.00 | 0.16 | 0.01 | ||
| 20260831001932 | 80 | 121 | 3.0 | 2.0 | 0.00 | 0.16 | 0.01 | ||
| 20260831001430 | 80 | 37 | 0.0 | 0.0 | 0.00 | 0.16 | 0.01 | ||
| 20260831000931 | 80 | 37 | 0.0 | 0.0 | 0.00 | 0.16 | 0.01 | ||
| 20260831000429 | 80 | 37 | 0.0 | 0.0 | 0.00 | 0.16 | 0.01 | ||
| 20260830235930 | 80 | 37 | 0.0 | 0.0 | 0.00 | 0.16 | 0.01 | ||
| 20260830235428 | 80 | 65 | 1.0 | 1.0 | 0.00 | 0.16 | 0.01 | ||
| 20260830234929 | 80 | 51 | 0.0 | 0.0 | 0.00 | 0.16 | 0.01 | ||
| 20260830234428 | 80 | 51 | 0.0 | 0.0 | 0.00 | 0.16 | 0.01 | ||
| 20260830233930 | 81 | 51 | 0.0 | 0.0 | 0.00 | 0.16 | 0.01 | ||
| 20260830232928 | 80 | 63 | 0.0 | 0.0 | 0.00 | 0.16 | 0.01 | ||
| 20260830232426 | 80 | 63 | 0.0 | 0.0 | 0.00 | 0.16 | 0.01 | ||
| 20260830231426 | 80 | 68 | 2.0 | 2.0 | 0.00 | 0.16 | 0.01 | ||
| 20260830230927 | 80 | 39 | 0.0 | 0.0 | 0.00 | 0.16 | 0.01 | ||
| 20260830230425 | 81 | 39 | 0.0 | 0.0 | 0.00 | 0.16 | 0.01 | ||
| 20260830225926 | 81 | 39 | 0.0 | 0.0 | 0.00 | 0.16 | 0.01 | ||
| 20260830225425 | 81 | 39 | 0.0 | 0.0 | 0.00 | 0.16 | 0.01 | ||
| 20260830224926 | 81 | 39 | 0.0 | 0.0 | 0.00 | 0.16 | 0.01 | ||
| 20260830224424 | 81 | 39 | 0.0 | 0.0 | 0.00 | 0.16 | 0.01 | ||
| 20260830223925 | 81 | 39 | 0.0 | 0.0 | 0.00 | 0.16 | 0.01 | ||
| 20260830223423 | 81 | 39 | 0.0 | 0.0 | 0.00 | 0.16 | 0.01 | ||
| 20260830222924 | 82 | 39 | 0.0 | 0.0 | 0.00 | 0.16 | 0.01 | ||
| 20260830221923 | 81 | 59 | 0.0 | 0.0 | 0.00 | 0.16 | 0.01 | ||
| 20260830221421 | 82 | 48 | 0.0 | 0.0 | 0.00 | 0.16 | 0.01 | ||
| 20260830220922 | 82 | 48 | 0.0 | 0.0 | 0.00 | 0.16 | 0.01 | ||
| 20260830220421 | 82 | 48 | 0.0 | 0.0 | 0.00 | 0.16 | 0.01 | ||
| 20260830215922 | 82 | 35 | 2.0 | 0.0 | 0.00 | 0.16 | 0.01 | ||
| 20260830215420 | 82 | 104 | 3.0 | 2.0 | 0.00 | 0.16 | 0.01 | ||
| 20260830214419 | 81 | 94 | 3.0 | 2.0 | 0.00 | 0.16 | 0.01 | ||
| 20260830213920 | 82 | 138 | 3.0 | 5.0 | 0.00 | 0.16 | 0.01 | ||
| 20260830212920 | 81 | 138 | 2.0 | 4.0 | 0.00 | 0.16 | 0.01 | ||
| 20260830212418 | 82 | 113 | 2.0 | 2.0 | 0.00 | 0.16 | 0.01 | ||
| 20260830210916 | 82 | 159 | 3.0 | 6.0 | 0.00 | 0.16 | 0.01 | ||
| 20260830204916 | 82 | 120 | 3.0 | 4.0 | 0.00 | 0.16 | 0.01 | ||
| 20260830203913 | 82 | 127 | 3.0 | 1.0 | 0.00 | 0.16 | 0.01 | ||
| 20260830203411 | 82 | 98 | 4.0 | 3.0 | 0.00 | 0.16 | 0.01 | ||
| 20260830202409 | 82 | 138 | 5.0 | 3.0 | 0.00 | 0.16 | 0.01 | ||
| 20260830201910 | 82 | 136 | 3.0 | 3.0 | 0.00 | 0.16 | 0.01 | ||
| 20260830201406 | 82 | 125 | 5.0 | 3.0 | 0.00 | 0.16 | 0.01 | ||
| 20260830200907 | 82 | 158 | 4.0 | 5.0 | 0.00 | 0.16 | 0.01 | ||
| 20260830200405 | 82 | 127 | 5.0 | 5.0 | 0.00 | 0.16 | 0.01 | ||
| 20260830195906 | 82 | 145 | 4.0 | 2.0 | 0.00 | 0.16 | 0.01 | ||
| 20260830195404 | 82 | 121 | 3.0 | 3.0 | 0.00 | 0.16 | 0.01 | ||
| 20260830194905 | 82 | 141 | 4.0 | 4.0 | 0.00 | 0.16 | 0.01 | ||
| 20260830194404 | 82 | 132 | 5.0 | 4.0 | 0.00 | 0.16 | 0.01 | ||
| 20260830193905 | 82 | 159 | 5.0 | 6.0 | 0.00 | 0.16 | 0.01 | ||
| 20260830193403 | 83 | 117 | 7.0 | 8.0 | 0.00 | 0.16 | 0.01 | ||
| 20260830192904 | 84 | 142 | 4.0 | 5.0 | 0.00 | 0.16 | 0.01 | ||
| 20260830192402 | 83 | 129 | 3.0 | 3.0 | 0.00 | 0.16 | 0.01 | ||
| 20260830191903 | 83 | 158 | 3.0 | 3.0 | 0.00 | 0.16 | 0.01 | ||
| 20260830191400 | 83 | 138 | 2.0 | 3.0 | 0.00 | 0.16 | 0.01 | ||
| 20260830190901 | 83 | 141 | 2.0 | 2.0 | 0.00 | 0.16 | 0.01 | ||
| 20260830190359 | 83 | 150 | 2.0 | 2.0 | 0.00 | 0.16 | 0.01 | ||
| 20260830185900 | 83 | 129 | 3.0 | 2.0 | 0.00 | 0.16 | 0.01 | ||
| 20260830185358 | 83 | 139 | 3.0 | 3.0 | 0.00 | 0.16 | 0.01 | ||
| 20260830184859 | 84 | 128 | 3.0 | 3.0 | 0.00 | 0.16 | 0.01 | ||
| 20260830184357 | 83 | 148 | 2.0 | 4.0 | 0.00 | 0.16 | 0.01 | ||
| 20260830183858 | 83 | 131 | 5.0 | 5.0 | 0.00 | 0.16 | 0.01 | ||
| 20260830183356 | 83 | 105 | 2.0 | 2.0 | 0.00 | 0.16 | 0.01 | ||
| 20260830182858 | 83 | 150 | 6.0 | 6.0 | 0.01 | 0.16 | 0.01 | ||
| 20260830182356 | 83 | 91 | 4.0 | 5.0 | 0.01 | 0.16 | 0.01 | ||
| 20260830181857 | 82 | 136 | 4.0 | 4.0 | 0.01 | 0.16 | 0.01 | ||
| 20260830181353 | 82 | 103 | 4.0 | 2.0 | 0.01 | 0.16 | 0.01 | ||
| 20260830180854 | 82 | 127 | 4.0 | 3.0 | 0.01 | 0.16 | 0.01 | ||
| 20260830180352 | 82 | 135 | 3.0 | 2.0 | 0.01 | 0.16 | 0.01 | ||
| 20260830175853 | 82 | 86 | 0.0 | 0.0 | 0.01 | 0.16 | 0.01 | ||
| 20260830175352 | 81 | 86 | 1.0 | 0.0 | 0.01 | 0.16 | 0.01 | ||
| 20260830174852 | 82 | 205 | 0.0 | 0.0 | 0.01 | 0.16 | 0.01 | ||
| 20260830174351 | 81 | 8 | 0.0 | 0.0 | 0.01 | 0.16 | 0.01 | ||
| 20260830173852 | 82 | 8 | 0.0 | 0.0 | 0.01 | 0.16 | 0.01 | ||
| 20260830173350 | 81 | 49 | 0.0 | 0.0 | 0.00 | 0.16 | 0.01 | ||
| 20260830172851 | 81 | 49 | 0.0 | 0.0 | 0.00 | 0.16 | 0.01 | ||
| 20260830172349 | 82 | 49 | 0.0 | 0.0 | 0.00 | 0.16 | 0.00 | ||
| 20260830171849 | 80 | 49 | 0.0 | 0.0 | 0.00 | 0.16 | 0.00 | ||
| 20260830171347 | 81 | 49 | 0.0 | 0.0 | 0.00 | 0.16 | 0.00 | ||
| 20260830170848 | 81 | 53 | 0.0 | 0.0 | 0.00 | 0.16 | 0.00 | ||
| 20260830170347 | 81 | 65 | 2.0 | 1.0 | 0.00 | 0.16 | 0.00 | ||
| 20260830165346 | 82 | 98 | 3.0 | 3.0 | 0.00 | 0.16 | 0.00 | ||
| 20260830164847 | 82 | 118 | 3.0 | 3.0 | 0.00 | 0.16 | 0.00 | ||
| 20260830164345 | 82 | 84 | 3.0 | 4.0 | 0.00 | 0.16 | 0.00 | ||
| 20260830163846 | 83 | 91 | 4.0 | 5.0 | 0.00 | 0.16 | 0.00 | ||
| 20260830163344 | 83 | 84 | 5.0 | 3.0 | 0.00 | 0.16 | 0.00 | ||
| 20260830162845 | 83 | 60 | 5.0 | 7.0 | 0.00 | 0.16 | 0.00 | ||
| 20260830162344 | 84 | 146 | 8.0 | 6.0 | 0.00 | 0.16 | 0.00 | ||
| 20260830161343 | 83 | 125 | 6.0 | 4.0 | 0.00 | 0.16 | 0.00 | ||
| 20260830160844 | 83 | 156 | 6.0 | 6.0 | 0.00 | 0.16 | 0.00 | ||
| 20260830160342 | 83 | 132 | 7.0 | 5.0 | 0.00 | 0.16 | 0.00 | ||
| 20260830155844 | 83 | 128 | 7.0 | 8.0 | 0.00 | 0.16 | 0.00 | ||
| 20260830155341 | 84 | 138 | 5.0 | 7.0 | 0.00 | 0.16 | 0.00 | ||
| 20260830154843 | 83 | 79 | 3.0 | 1.0 | 0.00 | 0.16 | 0.00 | ||
| 20260830153340 | 82 | 86 | 4.0 | 5.0 | 0.00 | 0.16 | 0.00 | ||
| 20260830152841 | 82 | 72 | 3.0 | 2.0 | 0.00 | 0.16 | 0.00 | ||
| 20260830152340 | 83 | 76 | 3.0 | 4.0 | 0.00 | 0.16 | 0.00 | ||
| 20260830151339 | 83 | 115 | 5.0 | 4.0 | 0.00 | 0.16 | 0.00 | ||
| 20260830150840 | 82 | 121 | 1.0 | 3.0 | 0.00 | 0.16 | 0.00 | ||
| 20260830150338 | 82 | 90 | 5.0 | 3.0 | 0.00 | 0.16 | 0.00 | ||
| 20260830145338 | 81 | 104 | 4.0 | 3.0 | 0.00 | 0.16 | 0.00 | ||
| 20260830140330 | 77 | 89 | 3.0 | 2.0 | 0.00 | 0.16 | 0.00 | ||
| 20260830135831 | 77 | 80 | 3.0 | 2.0 | 0.00 | 0.16 | 0.00 | ||
| 20260830135330 | 77 | 115 | 1.0 | 2.0 | 0.00 | 0.16 | 0.00 | ||
| 20260830134831 | 77 | 79 | 3.0 | 2.0 | 0.00 | 0.16 | 0.00 | ||
| 20260830134329 | 76 | 63 | 0.0 | 3.0 | 0.00 | 0.16 | 0.00 | ||
| 20260830133830 | 76 | 82 | 0.0 | 3.0 | 0.00 | 0.16 | 0.00 | ||
| 20260830133328 | 75 | 90 | 2.0 | 2.0 | 0.00 | 0.16 | 0.00 | ||
| 20260830132829 | 76 | 79 | 1.0 | 2.0 | 0.00 | 0.16 | 0.00 | ||
| 20260830131829 | 75 | 53 | 1.0 | 0.0 | 0.00 | 0.16 | 0.00 | ||
| 20260830131327 | 76 | 58 | 0.0 | 0.0 | 0.00 | 0.16 | 0.00 | ||
| 20260830125826 | 75 | 58 | 0.0 | 0.0 | 0.00 | 0.16 | 0.00 | ||
| 20260830124826 | 74 | 58 | 0.0 | 0.0 | 0.00 | 0.16 | 0.00 | ||
| 20260830124324 | 74 | 153 | 1.0 | 2.0 | 0.00 | 0.16 | 0.00 | ||
| 20260830123824 | 74 | 84 | 0.0 | 0.0 | 0.00 | 0.16 | 0.00 | ||
| 20260830122823 | 74 | 89 | 0.0 | 2.0 | 0.00 | 0.16 | 0.00 | ||
| 20260830122322 | 74 | 55 | 0.0 | 0.0 | 0.00 | 0.16 | 0.00 | ||
| 20260830121823 | 74 | 55 | 0.0 | 0.0 | 0.00 | 0.16 | 0.00 | ||
| 20260830121321 | 75 | 55 | 0.0 | 0.0 | 0.00 | 0.16 | 0.00 | ||
| 20260830120822 | 74 | 55 | 0.0 | 0.0 | 0.00 | 0.16 | 0.00 | ||
| 20260830120320 | 74 | 68 | 2.0 | 1.0 | 0.00 | 0.16 | 0.00 | ||
| 20260830115821 | 74 | 46 | 0.0 | 0.0 | 0.00 | 0.16 | 0.00 | ||
| 20260830115319 | 73 | 46 | 0.0 | 0.0 | 0.00 | 0.16 | 0.00 | ||
| 20260830114820 | 74 | 46 | 0.0 | 0.0 | 0.00 | 0.16 | 0.00 | ||
| 20260830114319 | 74 | 46 | 1.0 | 0.0 | 0.00 | 0.16 | 0.00 | ||
| 20260830113820 | 74 | 30 | 1.0 | 0.0 | 0.00 | 0.16 | 0.00 | ||
| 20260830113318 | 74 | 49 | 0.0 | 0.0 | 0.00 | 0.16 | 0.00 | ||
| 20260830112819 | 74 | 52 | 0.0 | 0.0 | 0.00 | 0.16 | 0.00 | ||
| 20260830112317 | 74 | 62 | 0.0 | 2.0 | 0.00 | 0.16 | 0.00 | ||
| 20260830111818 | 73 | 59 | 0.0 | 0.0 | 0.00 | 0.16 | 0.00 | ||
| 20260830111315 | 74 | 52 | 2.0 | 0.0 | 0.00 | 0.16 | 0.00 | ||
| 20260830110816 | 74 | 59 | 3.0 | 2.0 | 0.00 | 0.16 | 0.00 | ||
| 20260830110314 | 74 | 84 | 2.0 | 4.0 | 0.00 | 0.16 | 0.00 | ||
| 20260830105816 | 74 | 59 | 0.0 | 0.0 | 0.00 | 0.16 | 0.00 | ||
| 20260830105314 | 75 | 59 | 0.0 | 0.0 | 0.00 | 0.16 | 0.00 | ||
| 20260830104815 | 75 | 101 | 0.0 | 3.0 | 0.00 | 0.16 | 0.00 | ||
| 20260830104313 | 75 | 105 | 0.0 | 0.0 | 0.00 | 0.16 | 0.00 | ||
| 20260830103814 | 74 | 105 | 0.0 | 0.0 | 0.00 | 0.16 | 0.00 | ||
| 20260830102814 | 74 | 105 | 0.0 | 0.0 | 0.00 | 0.16 | 0.00 | ||
| 20260830102312 | 75 | 105 | 0.0 | 0.0 | 0.00 | 0.16 | 0.00 | ||
| 20260830101813 | 74 | 105 | 0.0 | 0.0 | 0.00 | 0.16 | 0.00 | ||
| 20260830101311 | 75 | 105 | 0.0 | 0.0 | 0.00 | 0.16 | 0.00 | ||
| 20260830100812 | 75 | 105 | 0.0 | 0.0 | 0.00 | 0.16 | 0.00 | ||
| 20260830100311 | 75 | 105 | 0.0 | 0.0 | 0.00 | 0.16 | 0.00 | ||
| 20260830095812 | 75 | 62 | 1.0 | 0.0 | 0.00 | 0.16 | 0.00 | ||
| 20260830095310 | 75 | 90 | 2.0 | 2.0 | 0.00 | 0.16 | 0.00 | ||
| 20260830094811 | 75 | 82 | 3.0 | 2.0 | 0.00 | 0.16 | 0.00 | ||
| 20260830094309 | 75 | 114 | 2.0 | 2.0 | 0.00 | 0.16 | 0.00 | ||
| 20260830093810 | 75 | 89 | 3.0 | 1.0 | 0.00 | 0.16 | 0.00 | ||
| 20260830093309 | 75 | 83 | 0.0 | 1.0 | 0.00 | 0.16 | 0.00 | ||
| 20260830092308 | 75 | 111 | 3.0 | 2.0 | 0.00 | 0.16 | 0.00 | ||
| 20260830091809 | 75 | 76 | 0.0 | 0.0 | 0.00 | 0.16 | 0.00 | ||
| 20260830091307 | 75 | 86 | 0.0 | 3.0 | 0.00 | 0.16 | 0.00 | ||
| 20260830090307 | 74 | 120 | 2.0 | 2.0 | 0.00 | 0.16 | 0.00 | ||
| 20260830085808 | 75 | 84 | 2.0 | 2.0 | 0.00 | 0.16 | 0.00 | ||
| 20260830085307 | 75 | 115 | 0.0 | 0.0 | 0.00 | 0.16 | 0.00 | ||
| 20260830084807 | 74 | 131 | 2.0 | 1.0 | 0.00 | 0.16 | 0.00 | ||
| 20260830084305 | 76 | 113 | 0.0 | 2.0 | 0.00 | 0.16 | 0.00 | ||
| 20260830083806 | 75 | 105 | 4.0 | 3.0 | 0.00 | 0.16 | 0.00 | ||
| 20260830083305 | 75 | 80 | 2.0 | 3.0 | 0.00 | 0.16 | 0.00 | ||
| 20260830082806 | 74 | 70 | 2.0 | 3.0 | 0.00 | 0.16 | 0.00 | ||
| 20260830081805 | 74 | 79 | 0.0 | 0.0 | 0.00 | 0.16 | 0.00 | ||
| 20260830081303 | 75 | 79 | 0.0 | 0.0 | 0.00 | 0.16 | 0.00 | ||
| 20260830080804 | 75 | 79 | 0.0 | 0.0 | 0.00 | 0.16 | 0.00 | ||
| 20260830080300 | 74 | 79 | 0.0 | 0.0 | 0.00 | 0.16 | 0.00 | ||
| 20260830075802 | 74 | 79 | 0.0 | 0.0 | 0.00 | 0.16 | 0.00 | ||
| 20260830075300 | 74 | 79 | 0.0 | 0.0 | 0.00 | 0.16 | 0.00 | ||
| 20260830074801 | 74 | 79 | 0.0 | 0.0 | 0.00 | 0.16 | 0.00 | ||
| 20260830074300 | 75 | 110 | 2.0 | 2.0 | 0.00 | 0.16 | 0.00 | ||
| 20260830073800 | 74 | 83 | 0.0 | 1.0 | 0.00 | 0.16 | 0.00 | ||
| 20260830073259 | 75 | 93 | 0.0 | 0.0 | 0.00 | 0.16 | 0.00 | ||
| 20260830072800 | 75 | 93 | 0.0 | 0.0 | 0.00 | 0.16 | 0.00 | ||
| 20260830072258 | 74 | 93 | 0.0 | 0.0 | 0.00 | 0.16 | 0.00 | ||
| 20260830071759 | 74 | 93 | 0.0 | 0.0 | 0.00 | 0.16 | 0.00 | ||
| 20260830070758 | 74 | 93 | 0.0 | 0.0 | 0.00 | 0.16 | 0.00 | ||
| 20260830070257 | 74 | 93 | 0.0 | 0.0 | 0.00 | 0.16 | 0.00 | ||
| 20260830065758 | 75 | 93 | 1.0 | 2.0 | 0.00 | 0.16 | 0.00 | ||
| 20260830065256 | 74 | 89 | 0.0 | 0.0 | 0.00 | 0.16 | 0.00 | ||
| 20260830064757 | 75 | 89 | 0.0 | 0.0 | 0.00 | 0.16 | 0.00 | ||
| 20260830064255 | 74 | 89 | 0.0 | 0.0 | 0.00 | 0.16 | 0.00 | ||
| 20260830063756 | 74 | 114 | 3.0 | 4.0 | 0.00 | 0.16 | 0.00 | ||
| 20260830063254 | 75 | 104 | 2.0 | 2.0 | 0.00 | 0.02 | 0.16 | ||
| 20260830062755 | 75 | 76 | 0.0 | 0.0 | 0.00 | 0.02 | 0.16 | ||
| 20260830062253 | 74 | 91 | 2.0 | 2.0 | 0.00 | 0.02 | 0.16 | ||
| 20260830061754 | 74 | 107 | 0.0 | 0.0 | 0.00 | 0.02 | 0.16 | ||
| 20260830061253 | 75 | 107 | 0.0 | 0.0 | 0.00 | 0.02 | 0.16 | ||
| 20260830060754 | 75 | 107 | 0.0 | 0.0 | 0.00 | 0.02 | 0.16 | ||
| 20260830060252 | 75 | 107 | 0.0 | 0.0 | 0.00 | 0.02 | 0.16 | ||
| 20260830055252 | 75 | 107 | 0.0 | 0.0 | 0.00 | 0.02 | 0.16 | ||
| 20260830054753 | 75 | 87 | 0.0 | 0.0 | 0.00 | 0.02 | 0.16 | ||
| 20260830054251 | 75 | 66 | 1.0 | 1.0 | 0.00 | 0.02 | 0.16 | ||
| 20260830053752 | 75 | 65 | 0.0 | 0.0 | 0.00 | 0.02 | 0.16 | ||
| 20260830053250 | 75 | 65 | 0.0 | 0.0 | 0.00 | 0.02 | 0.16 | ||
| 20260830052751 | 75 | 121 | 0.0 | 0.0 | 0.00 | 0.02 | 0.16 | ||
| 20260830052247 | 76 | 75 | 0.0 | 0.0 | 0.00 | 0.02 | 0.16 | ||
| 20260830051748 | 75 | 75 | 0.0 | 0.0 | 0.00 | 0.02 | 0.16 | ||
| 20260830051246 | 75 | 75 | 0.0 | 0.0 | 0.00 | 0.02 | 0.16 |